User: anonymous   Login
Location: Unspecified
(0.0000°N, 0.0000°E)
Time: 17:26:37
(UTC+00:00)
Language:

CORVUS BC1 - Orbit

View from above orbital plane
View from above orbital plane
View from above satellite
View from above satellite

Ground track
Ground track

The orbit data is extracted from the following two-line orbital elements,

1 42847U 17042Y   18112.78435544  .00000082  00000-0  13471-4 0  9992
2 42847  97.6016  17.6855 0010052  29.2791 330.8990 14.91892639 42107
Epoch (UTC): 22 April 2018 18:49:28
Eccentricity: 0.0010052
inclination: 97.6016°
perigee height: 585 km
apogee height: 599 km
right ascension of ascending node: 17.6855°
argument of perigee: 29.2791°
revolutions per day: 14.91892639
mean anomaly at epoch: 330.8990°
orbit number at epoch: 4210

The dashed part of the orbit path shows where the satellite is in the earth's shadow,  

DLR